Regional Weather Roundup
Issued by NWS

Home | Current Version | Previous Version | Graphics & Text | Print | Product List | Glossary On
Versions: 1 2 3 4 5 6 7 8 9 10 11 12 13 14 15 16 17 18 19 20 21 22 23 24 25 26 27 28 29 30 31 32 33 34 35 36 37 38 39 40 41 42 43 44 45 46 47 48 49 50
000
ASUS43 KLMK 222202
RWRKY
KENTUCKY REGIONAL WEATHER ROUNDUP
NATIONAL WEATHER SERVICE LOUISVILLE KY
600 PM EDT WED OCT 22 2014

NOTE "FAIR" INDICATES FEW OR NO CLOUDS BELOW 12,000 FEET
WITH NO SIGNIFICANT WEATHER AND/OR OBSTRUCTIONS TO VISIBILITY.

KYZ001>023-026-027-061>063-070>075-222300-
WESTERN AND SOUTH CENTRAL KENTUCKY

CITY           SKY/WX    TMP DP  RH WIND       PRES   REMARKS
PADUCAH        SUNNY     63  43  48 NE9       30.21S
HENDERSON      SUNNY    N/A N/A N/A NE8       30.23R
OWENSBORO      SUNNY     61  40  45 NE8       30.23F
HOPKINSVILLE   SUNNY     61  41  47 NE8       30.21R
BOWLING GREEN  SUNNY     62  41  46 NE7       30.21F
GLASGOW        NOT AVBL
$$

KYZ024-025-028>034-038-045-046-053-222300-
NORTH CENTRAL KENTUCKY

CITY           SKY/WX    TMP DP  RH WIND       PRES   REMARKS
LOUISVILLE/SDF PTCLDY    61  40  45 VRB6      30.23F
LOUISVILLE/LOU CLEAR     60  40  47 N5        30.24S
FORT KNOX      PTCLDY    58  42  55 N8        30.22S
$$

KYZ035>037-039>044-047>052-055>060-089>105-222300-
NORTHEAST KENTUCKY

CITY           SKY/WX    TMP DP  RH WIND       PRES   REMARKS
LEXINGTON      CLOUDY    56  42  59 NE8       30.25S
COVINGTON      MOCLDY    52  39  61 N6        30.26S
FRANKFORT      CLEAR     55  39  54 N6        30.24R
$$

KYZ054-064>069-076>088-106>120-222300-
SOUTHEAST KENTUCKY

CITY           SKY/WX    TMP DP  RH WIND       PRES   REMARKS
JACKSON        CLOUDY    49  41  74 VRB3      30.23S
LONDON         CLOUDY    50  40  68 NW3       30.24S
SOMERSET       CLOUDY    48  37  66 NE9       30.27R
MIDDLESBORO    NOT AVBL
MONTICELLO     CLEAR     54  42  63 NE9       30.26R
$$




USA.gov is the U.S. government's official web portal to all federal, state and local government web resources and services.